This is the latest recevied weather packets stored in our database for station/object 2E0RGX-13. If no packets are shown the sender has not sent any weather packets the latest 10 day(s).
| Time | Temp. | Humidity | Pressure | Rain* | Wind** | Luminosity | Snow |
|---|---|---|---|---|---|---|---|
| 1778144374 | 13.33° C | 67% | 1013.3 hPa | 0 mm | - | 3 W/m² | - |
| 1778144070 | 12.22° C | 68% | 1013.2 hPa | 0 mm | - | 2 W/m² | - |
| 1778143766 | 12.22° C | 68% | 1013.3 hPa | 0 mm | - | 3 W/m² | - |
| 1778143462 | 12.22° C | 70% | 1013.3 hPa | 0 mm | - | 2 W/m² | - |
| 1778143158 | 12.22° C | 70% | 1013 hPa | 0 mm | - | 1 W/m² | - |
| 1778142854 | 11.67° C | 71% | 1013.1 hPa | 0 mm | - | 2 W/m² | - |
| 1778142550 | 11.67° C | 72% | 1013.3 hPa | 0 mm | - | 2 W/m² | - |
| 1778142246 | 11.67° C | 73% | 1013.2 hPa | 0 mm | - | 2 W/m² | - |
| 1778141942 | 11.67° C | 73% | 1013.3 hPa | 0 mm | - | 2 W/m² | - |
| 1778141638 | 11.11° C | 75% | 1013.3 hPa | 0 mm | - | 2 W/m² | - |
| 1778141334 | 11.11° C | 74% | 1013.3 hPa | 0 mm | - | 2 W/m² | - |
| 1778141030 | 11.11° C | 75% | 1013.3 hPa | 0 mm | - | 1 W/m² | - |
| 1778140726 | 11.11° C | 75% | 1013.4 hPa | 0 mm | - | 2 W/m² | - |
| 1778140422 | 11.11° C | 75% | 1013.2 hPa | 0 mm | - | 1 W/m² | - |
| 1778140118 | 11.11° C | 75% | 1013.2 hPa | 0 mm | - | 2 W/m² | - |
| 1778139814 | 11.11° C | 74% | 1013 hPa | 0 mm | - | 1 W/m² | - |
| 1778139510 | 11.67° C | 74% | 1013.2 hPa | 0 mm | - | 2 W/m² | - |
| 1778139206 | 11.11° C | 74% | 1013 hPa | 0 mm | - | 3 W/m² | - |
| 1778138902 | 11.11° C | 75% | 1013.2 hPa | 0 mm | - | 1 W/m² | - |
| 1778138598 | 10.56° C | 76% | 1013.2 hPa | 0 mm | - | 1 W/m² | - |
| 1778138294 | 10.56° C | 76% | 1013.2 hPa | 0 mm | - | 2 W/m² | - |
| 1778137990 | 10.56° C | 75% | 1013.1 hPa | 0 mm | - | 1 W/m² | - |
| 1778137686 | 10.56° C | 76% | 1012.9 hPa | 0 mm | - | 2 W/m² | - |
| 1778137382 | 10.56° C | 77% | 1013.1 hPa | 0 mm | - | 2 W/m² | - |
| 1778137078 | 10° C | 78% | 1013 hPa | 0 mm | - | 2 W/m² | - |
* Rain latest hour (hover to see other rain measurements)
** Current wind speed in m/s (hover to see current wind gust speed)